Wind_Speed
7 7 7 10 6 7 15 19 21 4 4 11 11 11 16 18 6 9 22 12 16 15 17 18 17 16 16 14 12 9 8 6 6 5 4 3 3 2 2 3 4 5 5 5 6 7 8 7 7
7 4 11 11 8 11 13 12 12 18 14 11 10 5 9 10 12 13 22 18 14 16 14 16 16 15 14 13 11 10 8 6 4 3 3 4 3 3 2 3 4 5 5 6 7 8 9 11 9
8 3 12 7 12 13 15 8 11 15 7 5 6 8 10 9 11 10 17 19 14 18 15 17 18 17 14 13 12 11 11 10 9 7 5 5 4 4 3 4 7 7 6 7 8 9 10 11 12
9 13 11 9 16 19 17 8 7 6 3 0 10 10 9 8 6 14 18 18 16 19 16 15 15 16 14 13 12 11 10 10 10 9 7 6 5 5 6 7 7 7 7 8 9 10 11 11 11
15 13 11 17 21 22 5 11 9 7 7 8 2 11 10 12 15 20 22 16 18 19 17 15 14 14 13 12 11 10 9 8 8 7 5 3 2 3 4 4 5 5 6 7 8 10 10 11 10
15 22 14 15 19 3 7 7 5 10 10 10 9 13 8 14 17 19 20 20 19 17 15 13 11 11 10 9 9 8 8 7 7 5 4 4 3 3 4 5 6 7 8 8 8 9 10 11 12
14 12 16 20 19 17 5 8 6 9 2 12 4 11 14 14 15 21 20 20 19 16 13 13 10 8 7 8 9 9 9 8 7 5 4 4 4 4 5 6 6 6 7 8 9 9 10 10 11
16 11 19 17 16 2 8 2 2 7 1 7 2 4 11 21 18 18 17 19 18 15 15 10 8 7 8 11 10 9 9 8 6 5 4 4 5 5 5 4 5 6 6 7 7 8 9 9 10
12 10 14 18 15 9 11 2 7 6 8 3 9 8 22 25 21 20 19 20 20 16 13 10 8 7 9 10 11 9 9 8 7 6 6 6 4 4 1 2 3 4 5 6 7 8 8 8 8
9 10 20 10 11 9 2 5 9 6 13 9 12 17 23 23 23 23 21 19 18 18 14 12 10 9 8 9 10 9 7 7 8 8 7 5 4 3 3 3 3 3 5 6 6 7 9 9 9
16 13 18 12 7 11 12 10 9 8 10 9 24 25 22 23 23 21 19 18 16 15 15 14 14 12 11 6 6 4 5 7 7 7 6 5 4 3 2 2 3 4 4 5 5 7 8 9 9
7 15 21 12 10 6 12 14 12 7 6 10 13 26 24 21 21 19 18 16 16 14 13 15 15 16 14 10 11 12 7 6 7 7 8 6 5 4 3 1 2 2 3 4 5 7 8 8 9
14 14 17 9 14 12 14 15 13 16 10 4 14 20 23 23 22 21 19 17 18 18 17 14 14 16 18 15 14 13 9 9 6 8 8 7 5 3 1 1 2 4 4 5 6 7 7 7 9
18 16 18 20 20 16 14 16 16 19 14 7 8 14 16 18 19 19 20 20 20 20 18 17 14 15 16 16 13 12 9 7 7 5 5 5 3 3 1 2 3 4 5 5 6 6 7 7 8
15 16 16 17 20 16 9 12 17 24 12 9 10 11 16 17 20 21 20 19 19 18 19 17 16 15 16 13 10 10 9 6 4 5 5 4 3 3 2 3 3 4 5 5 5 5 5 4 4
18 17 16 15 16 7 3 12 12 15 17 13 12 16 16 17 20 21 20 21 20 20 20 18 15 15 12 12 10 9 11 8 5 4 3 3 2 2 1 2 2 2 3 4 4 5 5 5 6
16 15 15 8 8 4 9 9 12 1 2 9 13 15 17 17 19 22 22 21 21 22 19 18 17 16 17 16 16 12 12 9 6 4 2 2 2 2 0 1 2 3 2 4 4 3 5 6 8
15 13 12 11 7 9 12 11 12 20 17 16 18 17 19 20 20 19 20 20 18 18 19 19 18 19 16 17 12 11 9 7 5 4 3 1 2 3 4 3 3 3 3 5 5 5 5 7 11
12 12 17 17 16 16 17 19 17 17 20 19 19 19 16 23 21 21 20 18 18 19 19 18 18 17 16 13 10 8 8 6 4 4 2 2 2 3 3 1 2 3 5 5 6 6 5 7 12
9 12 15 17 14 11 15 20 19 17 21 26 23 19 22 22 25 25 24 19 18 18 17 18 18 17 11 10 10 12 9 9 6 1 1 1 2 2 3 1 2 2 2 6 7 6 5 7 13
13 14 14 16 14 15 17 24 20 17 15 20 22 30 19 27 31 32 27 22 19 17 19 18 17 16 16 19 20 18 13 7 2 3 1 2 2 2 2 2 2 3 3 6 7 7 7 7 6
13 12 12 12 13 13 13 17 16 18 20 20 18 14 15 21 30 32 29 27 25 20 19 18 18 17 17 19 14 10 7 9 12 12 5 1 2 2 1 1 1 2 4 4 5 5 4 4 6
14 14 13 15 16 18 15 11 21 16 19 14 10 13 13 12 28 30 27 24 21 20 20 18 17 17 17 17 11 15 13 14 15 10 5 2 1 1 1 1 2 2 3 4 5 6 5 6 7
13 13 18 18 14 15 19 16 17 15 3 12 12 11 7 8 19 27 25 23 21 21 21 19 19 17 16 17 14 13 15 12 11 6 5 3 1 1 2 1 2 2 4 5 7 6 8 8 9
16 11 9 10 9 13 17 15 12 16 8 5 12 12 10 11 16 23 24 23 23 25 21 19 19 19 16 16 15 15 17 15 11 11 8 5 2 2 2 1 1 4 6 6 7 7 9 8 9
14 13 9 17 12 14 18 15 16 21 14 10 7 15 10 10 13 20 22 24 24 27 22 20 19 19 20 20 18 17 16 14 12 12 11 9 9 7 4 3 4 5 7 8 7 9 9 10 11
11 13 15 18 16 14 13 20 19 14 21 13 10 8 3 7 8 12 20 22 22 25 24 22 21 18 17 16 18 17 15 15 14 15 12 12 11 6 6 5 6 7 8 9 8 9 9 10 10
13 16 14 10 17 19 15 18 11 15 11 3 7 9 5 3 7 7 11 16 20 22 21 21 22 22 21 21 20 18 17 16 14 12 12 11 11 10 8 8 8 8 10 9 7 8 9 9 8
13 15 14 12 12 11 13 9 12 9 7 9 9 14 13 3 3 6 9 13 18 20 23 24 24 23 22 22 20 18 17 16 15 14 14 13 12 11 11 10 10 9 9 10 9 8 9 8 7
20 20 17 11 18 13 10 6 6 6 7 8 2 3 8 2 8 12 16 20 22 23 26 27 27 25 25 23 20 20 18 17 16 16 15 14 14 14 13 13 12 11 10 10 11 10 9 8 7
Wind_Direction
296 328 327 269 250 232 260 256 264 10 98 69 37 13 89 42 20 102 153 117 143 149 160 159 163 168 167 167 166 164 158 160 165 166 171 182 198 223 254 275 283 284 293 305 306 317 320 304 308
297 232 256 272 245 269 260 278 64 64 72 80 76 338 42 68 58 116 145 141 159 151 156 159 166 167 163 165 153 135 144 146 148 170 180 198 208 229 229 284 281 285 287 298 306 311 309 315 312
296 287 268 233 245 248 279 38 15 79 72 104 95 39 43 47 87 129 150 151 165 158 167 173 169 170 169 171 168 167 162 159 158 173 177 203 220 223 247 296 306 306 309 311 311 308 307 310 311
271 251 243 257 265 273 285 41 40 86 109 277 105 92 84 41 108 139 138 152 164 169 171 169 171 178 179 182 185 186 189 192 196 203 212 227 256 286 304 308 308 311 321 318 314 310 309 308 305
252 265 251 263 264 260 110 39 4 291 171 155 231 94 96 80 115 132 145 155 176 174 174 168 173 178 181 190 189 189 193 200 213 221 232 270 291 287 293 297 301 313 318 316 313 309 309 307 307
273 244 266 264 267 210 55 80 312 285 90 107 121 109 95 138 139 139 150 174 176 170 174 178 182 188 181 197 202 197 200 201 210 206 209 218 228 248 274 293 308 316 319 319 317 311 310 308 309
248 277 269 285 287 310 92 96 279 263 291 180 204 112 140 151 168 161 165 170 178 182 176 182 194 214 216 217 200 189 189 191 193 194 208 222 253 278 291 306 312 319 321 324 325 324 322 319 314
263 287 283 275 276 302 65 65 336 303 174 94 96 149 165 164 164 169 169 169 176 181 189 186 189 203 225 198 181 178 179 186 192 197 219 246 259 274 295 307 318 327 332 337 338 336 337 335 332
269 270 267 269 331 83 77 344 157 259 281 133 61 47 146 159 159 163 166 169 175 178 181 178 179 182 166 170 174 172 175 180 185 192 213 233 254 278 244 293 310 322 331 333 331 331 327 320 324
248 266 273 9 341 335 350 238 263 180 227 207 113 113 142 154 159 162 166 171 180 183 180 176 173 179 144 167 167 160 175 184 189 197 203 211 212 225 266 267 274 293 317 320 324 323 323 330 328
258 271 296 329 7 330 319 301 261 272 262 321 160 151 157 165 170 171 175 177 176 183 175 167 159 172 143 177 105 124 178 185 188 192 193 194 214 211 230 264 322 338 327 338 334 319 326 327 327
278 285 290 306 310 291 278 282 305 283 310 36 136 157 160 174 182 182 179 175 175 172 158 166 183 154 170 154 170 190 184 178 204 189 188 166 215 204 224 253 288 298 318 331 338 326 335 338 333
286 289 283 314 285 277 275 279 278 273 271 104 129 159 169 180 187 188 185 178 172 168 171 174 179 171 161 166 180 180 173 186 189 187 189 191 202 192 226 302 317 313 325 338 340 341 347 351 340
303 313 298 289 283 268 264 269 274 262 258 196 167 174 187 191 193 190 187 172 171 173 170 177 181 178 161 188 189 185 193 176 202 190 179 194 201 207 231 270 294 322 336 337 339 347 357 10 359
304 292 286 270 257 246 279 275 261 250 211 209 185 214 197 198 198 193 184 178 174 174 173 173 183 163 181 184 164 174 152 175 199 173 178 187 208 184 204 281 305 342 344 343 345 350 353 352 349
274 264 273 267 212 151 152 279 294 24 214 194 242 207 204 196 202 189 181 179 181 176 180 171 169 176 159 163 162 167 155 169 175 202 172 174 170 184 212 293 1 2 0 344 355 356 1 359 342
263 253 269 289 164 159 192 270 290 101 240 266 265 250 197 198 198 184 181 179 180 184 175 171 180 166 174 164 179 181 159 176 184 189 160 150 139 144 98 324 43 53 10 332 350 6 354 7 320
289 321 316 307 302 197 247 249 266 285 289 252 218 238 203 188 198 183 181 180 178 182 173 177 179 181 174 181 175 167 163 155 162 178 152 162 122 119 106 358 56 40 349 346 2 6 28 356 327
329 300 290 285 286 296 295 291 289 291 286 262 264 208 222 185 191 180 179 180 176 178 180 190 186 182 180 165 151 133 145 162 188 167 142 123 103 109 135 65 55 72 346 355 4 12 45 355 334
291 281 278 283 290 309 301 291 290 279 269 271 272 235 201 184 171 172 172 182 187 181 181 185 200 186 146 141 144 158 157 158 204 197 152 108 88 74 76 74 19 71 0 4 8 10 43 56 342
268 272 281 293 308 296 281 274 269 268 276 263 290 238 200 182 165 164 169 180 188 189 187 190 195 174 158 183 185 185 190 182 146 62 161 105 85 79 61 65 58 30 8 0 3 11 19 66 359
273 282 304 290 280 279 300 295 275 276 268 254 241 197 186 158 162 166 171 182 189 199 196 192 192 178 186 198 191 164 114 126 161 193 246 132 75 74 76 59 43 16 3 14 13 28 34 93 30
290 301 286 288 285 289 278 269 286 290 283 33 353 138 120 149 166 167 172 183 191 199 201 190 191 182 197 166 193 153 178 187 201 213 181 235 131 117 92 42 28 28 25 36 49 56 75 87 73
290 285 280 269 265 262 271 261 270 277 70 93 68 60 107 158 159 165 176 184 189 194 195 191 188 188 205 179 190 162 191 183 187 166 131 178 299 21 76 47 32 60 76 78 80 64 79 70 98
253 253 273 273 258 258 272 290 307 329 66 130 142 157 161 169 172 166 170 180 186 191 193 194 188 191 189 185 182 182 186 174 183 165 185 194 146 253 151 149 117 101 97 97 87 77 75 76 87
307 295 276 285 287 290 292 284 291 312 322 185 176 121 150 164 164 174 177 183 186 190 190 192 188 191 192 196 191 190 189 180 181 173 192 174 197 218 187 174 141 119 114 103 92 91 80 78 74
268 275 280 291 284 279 274 278 279 51 29 56 87 122 118 158 179 178 176 183 187 188 190 191 192 196 195 185 188 188 175 184 188 191 192 190 204 207 183 170 148 136 124 111 113 101 94 85 71
255 271 279 269 267 266 266 287 310 22 25 132 21 28 160 176 155 181 177 182 188 188 194 193 193 196 193 194 198 190 190 196 200 195 197 195 184 194 177 166 152 140 128 119 107 106 98 96 83
266 269 272 259 270 280 276 275 301 81 347 78 69 23 21 59 135 180 177 188 188 195 197 198 194 200 194 200 196 194 194 197 198 195 196 200 187 181 173 166 153 144 137 139 133 120 113 107 98
294 284 277 271 280 276 294 275 333 7 83 99 181 247 256 203 214 217 212 195 197 202 197 200 195 202 200 203 198 200 198 198 195 197 193 194 183 176 175 169 160 154 152 146 144 150 137 129 121
Height
1492 1492 1493 1493 1495 1479 1471 1454 1435 1433 1438 1449 1456 1460 1467 1473 1475 1482 1491 1494 1494 1497 1501 1504 1507 1510 1512 1514 1517 1519 1521 1523 1525 1527 1528 1529 1529 1530 1530 1531 1531 1532 1532 1532 1532 1532 1532 1531 1531
1491 1490 1494 1489 1488 1480 1457 1434 1439 1445 1453 1456 1459 1463 1465 1477 1482 1486 1489 1493 1495 1497 1502 1504 1506 1509 1511 1514 1517 1519 1521 1523 1526 1527 1528 1529 1529 1529 1530 1530 1531 1531 1531 1531 1531 1531 1531 1531 1531
1490 1491 1491 1482 1475 1476 1458 1440 1442 1450 1456 1457 1463 1469 1471 1484 1487 1490 1488 1493 1496 1500 1501 1504 1506 1509 1511 1513 1516 1519 1521 1523 1525 1526 1527 1527 1528 1528 1529 1529 1530 1531 1531 1531 1530 1530 1530 1530 1530
1490 1490 1488 1479 1472 1452 1444 1441 1445 1449 1458 1460 1461 1474 1481 1486 1486 1489 1492 1494 1497 1499 1501 1504 1506 1508 1511 1513 1515 1517 1520 1522 1523 1524 1525 1526 1527 1529 1529 1530 1530 1530 1529 1530 1529 1529 1528 1528 1529
1490 1486 1478 1472 1461 1443 1440 1445 1450 1450 1452 1458 1463 1475 1483 1488 1487 1490 1493 1494 1496 1498 1501 1504 1506 1508 1511 1513 1515 1517 1519 1521 1523 1524 1525 1527 1527 1528 1528 1528 1529 1529 1528 1528 1528 1528 1527 1527 1527
1485 1479 1478 1469 1448 1437 1442 1448 1455 1455 1455 1461 1466 1475 1487 1488 1489 1491 1493 1493 1496 1499 1502 1504 1506 1508 1511 1513 1515 1517 1518 1521 1522 1523 1524 1525 1525 1526 1526 1527 1527 1527 1527 1526 1526 1526 1525 1525 1525
1482 1475 1470 1460 1451 1442 1441 1451 1457 1455 1454 1457 1465 1471 1485 1488 1487 1490 1491 1494 1496 1499 1502 1504 1506 1507 1510 1512 1514 1515 1517 1519 1521 1522 1523 1523 1524 1525 1525 1525 1525 1525 1525 1525 1525 1525 1524 1523 1523
1477 1473 1470 1459 1452 1449 1449 1454 1456 1459 1459 1464 1465 1466 1481 1484 1486 1489 1492 1494 1496 1499 1501 1503 1505 1506 1508 1510 1513 1514 1516 1518 1519 1521 1523 1523 1523 1523 1524 1524 1524 1524 1524 1524 1523 1523 1523 1522 1521
1476 1476 1471 1455 1444 1446 1452 1456 1458 1462 1463 1465 1468 1470 1473 1478 1483 1488 1491 1494 1495 1498 1500 1501 1503 1505 1508 1509 1511 1514 1516 1516 1517 1519 1521 1521 1522 1522 1523 1523 1523 1523 1523 1522 1522 1522 1521 1520 1519
1471 1471 1460 1452 1452 1451 1451 1457 1457 1460 1461 1462 1468 1474 1476 1479 1482 1486 1490 1493 1495 1497 1500 1502 1504 1505 1508 1508 1509 1511 1514 1515 1516 1517 1518 1519 1521 1521 1522 1522 1521 1521 1521 1521 1520 1520 1519 1519 1518
1465 1467 1456 1455 1456 1458 1456 1455 1456 1457 1458 1457 1460 1470 1477 1481 1483 1486 1490 1492 1495 1496 1499 1502 1504 1506 1510 1511 1511 1510 1511 1513 1514 1516 1516 1517 1518 1519 1519 1519 1519 1519 1518 1518 1518 1517 1517 1516 1515
1467 1465 1461 1458 1458 1461 1461 1458 1456 1457 1458 1461 1461 1468 1474 1482 1485 1488 1491 1494 1496 1497 1501 1503 1503 1506 1510 1512 1515 1514 1511 1511 1512 1513 1514 1515 1516 1517 1518 1518 1518 1517 1517 1515 1516 1515 1515 1515 1514
1467 1463 1460 1458 1461 1461 1462 1460 1460 1460 1460 1463 1466 1470 1471 1476 1480 1484 1488 1491 1495 1498 1500 1501 1502 1504 1507 1510 1512 1513 1512 1510 1510 1511 1512 1513 1514 1515 1516 1516 1516 1515 1515 1514 1513 1514 1513 1514 1513
1468 1466 1464 1461 1458 1457 1458 1458 1459 1458 1459 1461 1466 1470 1474 1477 1481 1485 1487 1489 1492 1495 1498 1499 1500 1502 1505 1506 1508 1509 1510 1510 1509 1510 1511 1511 1512 1513 1513 1514 1514 1513 1513 1512 1512 1511 1511 1512 1512
1471 1469 1462 1455 1452 1454 1454 1456 1454 1450 1454 1459 1463 1467 1470 1475 1478 1481 1485 1488 1492 1494 1496 1497 1499 1501 1502 1504 1506 1506 1508 1509 1508 1509 1509 1510 1510 1511 1511 1512 1511 1511 1511 1511 1511 1510 1510 1510 1510
1469 1462 1463 1441 1436 1448 1457 1463 1448 1444 1449 1455 1460 1462 1465 1470 1475 1478 1482 1485 1489 1491 1491 1495 1497 1498 1501 1503 1505 1506 1507 1509 1508 1506 1508 1508 1509 1510 1510 1510 1510 1510 1509 1509 1508 1508 1507 1507 1507
1459 1463 1452 1443 1440 1445 1452 1457 1445 1451 1452 1453 1455 1457 1459 1467 1472 1475 1478 1483 1487 1487 1490 1493 1494 1496 1498 1501 1502 1504 1506 1507 1507 1506 1506 1507 1508 1508 1508 1509 1509 1508 1508 1507 1506 1505 1505 1505 1504
1457 1456 1451 1450 1445 1447 1448 1449 1448 1448 1449 1449 1448 1452 1453 1460 1469 1475 1480 1484 1488 1488 1491 1492 1493 1494 1496 1497 1500 1502 1504 1505 1505 1504 1505 1505 1506 1507 1507 1507 1508 1507 1507 1506 1505 1504 1503 1504 1503
1457 1460 1462 1454 1445 1446 1449 1446 1442 1442 1442 1441 1440 1443 1448 1453 1463 1470 1479 1484 1487 1487 1490 1492 1493 1494 1494 1497 1498 1500 1502 1503 1503 1503 1503 1504 1505 1506 1506 1506 1506 1505 1504 1504 1503 1503 1502 1503 1501
1462 1463 1463 1453 1447 1448 1448 1445 1439 1438 1436 1434 1433 1434 1438 1446 1455 1464 1474 1483 1486 1487 1490 1491 1492 1492 1495 1499 1500 1501 1502 1503 1502 1502 1503 1503 1504 1504 1504 1505 1505 1505 1503 1502 1502 1501 1502 1502 1499
1463 1464 1460 1462 1454 1452 1452 1442 1436 1427 1422 1421 1421 1425 1430 1437 1447 1455 1467 1476 1484 1487 1489 1491 1491 1492 1496 1496 1496 1497 1499 1502 1503 1502 1502 1502 1502 1502 1503 1504 1504 1503 1501 1501 1501 1501 1501 1500 1499
1466 1456 1456 1459 1464 1462 1446 1451 1433 1425 1419 1414 1412 1417 1425 1432 1443 1451 1461 1468 1476 1482 1486 1489 1489 1491 1493 1493 1493 1495 1497 1500 1502 1502 1501 1501 1501 1501 1502 1503 1502 1501 1500 1500 1500 1501 1500 1500 1500
1461 1458 1461 1461 1461 1456 1448 1450 1413 1418 1411 1415 1407 1415 1425 1434 1441 1449 1459 1466 1473 1480 1484 1487 1489 1491 1491 1493 1494 1494 1496 1498 1499 1500 1499 1499 1500 1501 1502 1502 1501 1500 1499 1499 1499 1500 1500 1500 1500
1458 1457 1458 1455 1455 1462 1444 1440 1423 1416 1414 1420 1426 1429 1432 1436 1442 1447 1455 1462 1469 1476 1480 1484 1486 1488 1488 1491 1493 1494 1494 1497 1498 1498 1499 1499 1500 1500 1500 1500 1500 1500 1499 1500 1499 1500 1499 1499 1500
1455 1458 1469 1465 1459 1450 1424 1426 1417 1410 1413 1417 1423 1429 1432 1436 1441 1447 1452 1460 1466 1471 1475 1481 1484 1485 1486 1488 1491 1492 1493 1494 1495 1497 1498 1499 1499 1498 1500 1499 1499 1499 1500 1501 1499 1500 1499 1500 1500
1455 1457 1462 1469 1463 1452 1432 1439 1425 1414 1415 1416 1421 1428 1435 1439 1441 1445 1450 1456 1461 1465 1471 1478 1482 1484 1485 1485 1486 1489 1491 1492 1493 1495 1496 1498 1498 1497 1498 1498 1499 1499 1501 1500 1500 1501 1501 1502 1501
1458 1457 1448 1453 1446 1453 1439 1429 1419 1422 1425 1422 1429 1433 1440 1442 1446 1446 1449 1454 1459 1461 1467 1473 1479 1481 1483 1485 1485 1486 1488 1489 1490 1491 1492 1495 1495 1496 1496 1498 1499 1500 1499 1500 1502 1502 1503 1502 1501
1457 1454 1460 1452 1464 1456 1439 1432 1427 1429 1432 1435 1437 1438 1441 1443 1446 1450 1451 1454 1458 1460 1465 1470 1475 1477 1479 1482 1482 1483 1484 1485 1486 1488 1490 1493 1493 1493 1496 1497 1499 1500 1499 1501 1502 1503 1503 1503 1503
1453 1449 1445 1444 1448 1455 1459 1446 1425 1438 1440 1446 1444 1447 1447 1447 1448 1451 1452 1455 1456 1458 1462 1468 1472 1474 1474 1477 1479 1479 1480 1481 1483 1485 1487 1490 1490 1491 1495 1498 1498 1499 1499 1501 1501 1504 1503 1504 1504
1449 1447 1446 1454 1452 1446 1447 1449 1434 1436 1443 1447 1449 1446 1451 1447 1447 1449 1448 1450 1453 1454 1457 1460 1466 1470 1470 1473 1475 1476 1476 1478 1480 1482 1486 1486 1488 1490 1493 1496 1497 1498 1500 1500 1502 1504 1504 1503 1504